Precipitable_Water
0.88 0.88 0.84 0.78 0.79 0.80 0.76 0.84 0.81 0.55 0.69 0.84 0.83 0.99 0.99 1.02 1.02 1.00 0.96 0.91 0.88 0.84 0.79 0.75 0.72 0.71 0.66 0.63 0.59 0.58 0.57 0.55 0.53 0.50 0.51 0.51 0.52 0.52
0.92 0.91 0.91 0.89 0.84 0.82 0.82 0.82 0.89 0.80 0.70 0.84 0.86 0.92 0.96 0.97 0.96 0.92 0.90 0.85 0.80 0.75 0.71 0.67 0.61 0.57 0.53 0.54 0.51 0.51 0.47 0.48 0.49 0.47 0.48 0.48 0.47 0.45
0.91 0.92 0.93 0.93 0.93 0.88 0.83 0.90 0.90 0.80 0.73 0.82 0.85 0.89 0.89 0.89 0.89 0.85 0.77 0.73 0.71 0.69 0.67 0.66 0.65 0.61 0.55 0.50 0.46 0.42 0.42 0.45 0.45 0.44 0.45 0.43 0.43 0.46
0.88 0.91 0.93 0.96 0.94 0.92 0.85 0.81 0.80 0.76 0.78 0.71 0.78 0.82 0.83 0.84 0.80 0.74 0.70 0.66 0.62 0.59 0.57 0.57 0.56 0.54 0.48 0.46 0.43 0.41 0.40 0.39 0.40 0.41 0.42 0.42 0.44 0.46
0.89 0.89 0.89 0.92 0.90 0.89 0.88 0.83 0.79 0.82 0.83 0.78 0.71 0.74 0.74 0.76 0.70 0.68 0.66 0.63 0.60 0.55 0.52 0.51 0.48 0.41 0.36 0.36 0.37 0.34 0.34 0.35 0.35 0.36 0.40 0.43 0.45 0.46
0.88 0.90 0.90 0.87 0.86 0.85 0.83 0.82 0.80 0.79 0.78 0.73 0.71 0.72 0.74 0.73 0.70 0.65 0.60 0.57 0.53 0.50 0.46 0.39 0.33 0.32 0.31 0.31 0.30 0.31 0.31 0.34 0.37 0.39 0.41 0.41 0.40 0.41
0.87 0.92 0.89 0.91 0.92 0.88 0.86 0.85 0.84 0.77 0.74 0.73 0.72 0.72 0.70 0.67 0.62 0.58 0.54 0.51 0.46 0.40 0.33 0.31 0.29 0.27 0.25 0.26 0.28 0.30 0.32 0.36 0.37 0.36 0.39 0.39 0.40 0.39
0.82 0.84 0.85 0.86 0.87 0.87 0.88 0.88 0.86 0.81 0.75 0.72 0.69 0.67 0.67 0.66 0.60 0.56 0.48 0.37 0.27 0.33 0.29 0.27 0.28 0.25 0.27 0.31 0.36 0.38 0.38 0.37 0.36 0.39 0.39 0.38 0.37 0.36
0.80 0.80 0.80 0.83 0.84 0.84 0.84 0.83 0.82 0.81 0.78 0.73 0.67 0.63 0.58 0.56 0.53 0.40 0.32 0.28 0.27 0.30 0.29 0.28 0.35 0.35 0.36 0.35 0.35 0.35 0.36 0.37 0.40 0.39 0.37 0.37 0.37 0.37
0.79 0.80 0.78 0.78 0.80 0.79 0.79 0.75 0.73 0.71 0.69 0.63 0.57 0.53 0.46 0.39 0.34 0.30 0.29 0.29 0.31 0.35 0.37 0.32 0.34 0.31 0.32 0.34 0.37 0.37 0.38 0.39 0.38 0.36 0.36 0.37 0.37 0.36
0.73 0.72 0.72 0.72 0.72 0.70 0.65 0.60 0.57 0.54 0.52 0.45 0.38 0.35 0.34 0.33 0.32 0.34 0.35 0.34 0.31 0.33 0.37 0.35 0.35 0.34 0.35 0.35 0.36 0.39 0.40 0.39 0.38 0.35 0.36 0.36 0.35 0.35
0.68 0.65 0.60 0.56 0.53 0.50 0.44 0.39 0.35 0.36 0.35 0.35 0.36 0.38 0.42 0.45 0.44 0.39 0.38 0.36 0.35 0.34 0.37 0.36 0.36 0.36 0.34 0.38 0.37 0.37 0.36 0.36 0.35 0.35 0.35 0.35 0.35 0.33
0.60 0.58 0.56 0.51 0.47 0.43 0.40 0.36 0.35 0.38 0.39 0.39 0.40 0.43 0.39 0.38 0.39 0.39 0.39 0.37 0.36 0.36 0.40 0.39 0.37 0.37 0.36 0.35 0.38 0.38 0.39 0.37 0.35 0.33 0.32 0.32 0.31 0.31
0.49 0.45 0.42 0.39 0.36 0.33 0.34 0.38 0.40 0.38 0.38 0.39 0.39 0.39 0.40 0.39 0.39 0.39 0.40 0.40 0.41 0.38 0.40 0.40 0.37 0.36 0.35 0.35 0.34 0.37 0.36 0.36 0.35 0.34 0.31 0.30 0.29 0.26
0.39 0.37 0.36 0.35 0.35 0.38 0.41 0.41 0.41 0.44 0.44 0.41 0.40 0.40 0.38 0.38 0.38 0.39 0.40 0.41 0.40 0.40 0.41 0.41 0.39 0.39 0.37 0.34 0.32 0.34 0.33 0.33 0.32 0.28 0.25 0.24 0.22 0.21
0.39 0.38 0.39 0.43 0.46 0.46 0.46 0.48 0.47 0.43 0.41 0.39 0.36 0.35 0.37 0.37 0.36 0.36 0.35 0.36 0.35 0.35 0.39 0.40 0.39 0.37 0.32 0.31 0.31 0.29 0.28 0.24 0.23 0.22 0.22 0.20 0.20 0.20
0.41 0.44 0.46 0.47 0.45 0.46 0.45 0.44 0.41 0.38 0.36 0.36 0.34 0.33 0.34 0.34 0.34 0.34 0.32 0.30 0.30 0.32 0.33 0.35 0.36 0.34 0.32 0.30 0.26 0.26 0.24 0.20 0.18 0.18 0.17 0.16 0.17 0.18
0.43 0.45 0.46 0.46 0.45 0.46 0.43 0.37 0.34 0.33 0.32 0.33 0.31 0.29 0.28 0.28 0.25 0.25 0.26 0.27 0.29 0.30 0.30 0.32 0.32 0.30 0.28 0.27 0.27 0.23 0.20 0.16 0.18 0.18 0.19 0.16 0.15 0.17
0.43 0.47 0.50 0.48 0.43 0.39 0.35 0.33 0.31 0.31 0.31 0.28 0.26 0.25 0.25 0.24 0.24 0.23 0.25 0.27 0.27 0.27 0.29 0.32 0.30 0.27 0.23 0.19 0.20 0.22 0.17 0.17 0.17 0.17 0.18 0.17 0.15 0.16
0.44 0.42 0.40 0.37 0.35 0.33 0.32 0.30 0.28 0.27 0.27 0.26 0.26 0.25 0.24 0.24 0.23 0.23 0.25 0.26 0.27 0.27 0.29 0.29 0.27 0.25 0.21 0.18 0.16 0.17 0.21 0.19 0.17 0.16 0.16 0.18 0.19 0.20
0.38 0.35 0.35 0.34 0.33 0.32 0.31 0.30 0.28 0.27 0.26 0.26 0.25 0.25 0.25 0.26 0.24 0.25 0.27 0.28 0.28 0.27 0.24 0.23 0.26 0.27 0.24 0.21 0.16 0.15 0.18 0.20 0.21 0.19 0.19 0.18 0.17 0.18
0.29 0.29 0.29 0.30 0.29 0.28 0.28 0.27 0.26 0.26 0.28 0.30 0.30 0.30 0.28 0.28 0.27 0.26 0.27 0.27 0.26 0.24 0.23 0.26 0.25 0.23 0.20 0.17 0.16 0.16 0.16 0.18 0.21 0.22 0.23 0.23 0.21 0.17
0.33 0.33 0.32 0.32 0.31 0.30 0.29 0.28 0.27 0.28 0.30 0.33 0.31 0.29 0.29 0.28 0.29 0.27 0.25 0.24 0.24 0.24 0.23 0.20 0.20 0.20 0.19 0.18 0.18 0.17 0.18 0.18 0.19 0.18 0.19 0.25 0.26 0.27
Wind_Speed
40 40 39 39 38 36 34 33 33 32 33 36 35 39 40 38 37 36 36 37 36 36 35 34 35 36 36 36 36 36 36 37 37 37 37 37 37 37
37 37 37 37 36 35 35 34 33 32 30 29 32 33 36 37 36 36 35 34 34 35 35 36 35 36 36 36 35 35 35 36 38 39 38 38 37 37
36 35 36 35 36 34 34 33 30 31 29 30 29 26 28 31 30 31 32 32 33 34 35 35 35 36 36 36 36 36 37 37 36 36 36 36 36 37
34 33 33 33 34 33 32 32 32 30 31 27 27 28 27 27 28 28 28 29 31 32 33 34 35 35 35 35 36 35 35 36 36 36 36 37 37 38
29 30 29 29 29 30 30 30 30 29 28 27 28 27 28 27 27 28 28 28 29 30 31 31 32 32 33 33 34 34 34 34 34 35 36 38 39 39
24 25 27 28 29 29 28 28 27 27 25 26 24 25 26 27 26 26 26 27 27 28 28 29 29 30 30 31 32 32 33 33 34 36 37 38 39 40
18 19 21 24 25 26 27 27 23 23 22 21 22 22 20 20 23 23 24 25 25 26 26 27 28 29 30 31 31 32 33 34 36 37 38 38 39 40
13 13 17 19 18 21 20 21 22 21 20 16 16 18 20 22 23 23 23 23 24 25 26 26 26 27 28 29 31 33 35 36 38 38 38 38 39 39
10 8 9 13 15 16 14 14 18 17 18 19 19 19 20 22 21 21 21 21 22 22 23 25 25 27 29 30 32 34 36 37 36 36 36 38 38 39
5 5 7 9 10 13 13 14 13 13 15 16 18 18 18 17 18 19 19 20 20 21 23 24 26 28 30 32 34 34 33 32 32 34 37 38 40 41
5 5 6 8 9 10 11 12 11 11 10 11 12 12 13 15 16 16 17 19 21 22 25 26 28 30 31 31 30 30 30 32 35 38 40 41 43 43
5 5 5 8 8 9 10 11 11 10 11 11 11 11 12 14 16 17 18 20 21 23 24 25 27 28 28 29 29 31 34 37 39 40 42 43 43 43
4 6 6 7 8 8 9 9 9 10 9 10 12 13 14 15 16 17 18 20 22 23 24 25 26 28 29 31 32 34 36 38 40 41 42 43 43 43
4 5 6 7 7 7 6 6 7 8 9 11 12 13 15 16 17 18 19 21 22 24 25 27 28 29 31 33 33 34 37 39 41 42 43 43 44 47
4 5 6 5 5 5 6 7 8 10 11 13 14 15 15 16 17 19 20 22 24 26 28 30 31 32 33 35 36 37 39 39 42 43 44 45 47 48
4 4 4 4 5 5 6 8 10 12 13 13 14 14 16 17 19 21 23 25 27 29 30 32 34 34 36 37 39 42 43 43 45 46 47 48 49 50
3 3 3 4 5 7 8 10 10 11 12 14 15 17 19 21 24 25 27 29 30 32 33 35 37 38 39 42 43 45 46 47 48 48 49 50 50 50
1 2 3 5 7 8 10 11 12 14 16 18 20 22 24 26 28 29 31 33 35 37 38 39 41 42 43 44 46 47 48 49 49 49 50 51 51 49
3 5 7 8 9 11 13 14 16 18 20 22 25 27 29 31 32 34 36 38 40 40 42 42 43 44 46 47 47 47 48 49 49 49 49 49 50 49
6 7 9 11 12 14 17 19 21 24 26 28 30 32 34 35 37 39 40 42 43 44 44 44 45 46 46 48 49 49 48 48 47 47 47 46 46 47
9 10 12 15 17 20 22 24 26 29 31 33 35 36 38 40 41 42 44 45 45 45 45 46 46 47 46 47 47 45 43 42 43 43 43 42 42 41
13 15 17 20 22 24 27 29 31 33 35 37 38 39 41 42 43 44 45 45 45 46 46 46 45 43 43 42 41 40 39 39 39 40 39 39 37 34
17 20 22 24 26 29 31 33 34 36 38 39 40 42 43 43 44 44 44 44 44 43 42 40 39 37 36 36 36 36 37 37 36 35 33 33 34 36
Wind_Direction
252 250 250 247 248 250 250 250 250 249 248 247 247 244 245 242 243 246 249 253 255 256 258 259 262 262 263 266 266 267 268 268 268 271 272 273 274 274
250 249 247 246 245 247 247 249 250 247 251 243 245 247 241 240 244 247 250 251 253 255 258 260 261 263 265 265 267 267 269 269 271 271 272 273 275 276
248 247 245 246 240 245 244 243 244 246 245 245 244 241 241 238 241 244 248 252 255 257 259 261 262 264 266 266 267 268 269 271 271 272 273 274 275 276
245 245 242 240 239 242 242 242 244 243 242 240 243 240 242 240 243 246 249 255 257 259 262 263 264 265 266 266 267 269 270 271 271 272 273 274 276 277
239 238 238 235 237 239 240 241 239 236 238 240 243 241 243 241 244 250 254 257 260 262 264 264 265 266 266 267 268 269 270 270 270 272 273 275 276 277
234 234 235 237 240 237 237 236 233 234 236 236 239 242 242 240 245 250 254 259 263 264 264 265 266 267 268 268 269 269 269 271 273 275 276 277 277 278
232 231 237 235 234 235 233 228 225 223 228 231 238 236 234 236 244 252 257 261 263 264 266 267 268 269 270 270 269 270 271 273 275 277 278 278 279 281
218 225 230 234 227 229 220 209 218 219 226 224 225 231 243 244 250 255 259 262 265 265 267 269 269 271 271 271 273 275 275 276 278 278 279 280 281 282
204 239 224 209 213 203 207 199 203 216 223 230 239 247 249 248 249 254 258 263 266 268 270 272 272 274 276 277 278 280 280 279 278 279 280 282 282 283
184 190 178 184 187 197 205 204 209 226 232 239 242 243 250 247 250 258 260 265 269 273 274 275 277 278 280 282 282 281 280 278 278 281 284 283 284 285
175 191 186 190 190 195 197 201 215 223 229 230 237 241 243 248 253 261 266 269 273 276 279 279 281 283 284 284 283 281 281 281 282 285 285 285 286 286
189 183 180 191 200 203 204 209 215 227 229 235 240 246 253 258 264 270 271 275 279 282 283 285 285 286 285 285 285 285 285 286 286 287 287 287 287 286
194 202 207 204 199 201 204 211 218 225 235 244 251 260 264 267 270 275 278 280 284 286 287 289 288 289 287 288 289 289 289 289 290 290 289 289 288 287
166 177 179 179 181 188 202 210 224 238 249 258 261 267 270 272 274 278 282 286 289 291 290 291 291 290 290 290 290 291 291 292 292 291 290 290 289 289
166 163 167 178 191 208 225 240 247 257 265 269 271 274 275 276 279 283 286 289 292 294 294 292 292 291 291 290 292 293 294 293 293 292 291 291 291 291
170 181 191 205 223 239 255 266 271 274 275 275 276 277 279 282 284 287 289 291 294 296 296 295 294 292 293 292 293 294 295 294 294 293 292 292 292 291
190 204 222 247 259 268 276 280 279 281 282 282 284 284 286 287 289 289 291 292 294 297 297 298 295 294 294 294 295 295 295 295 295 294 293 293 293 293
183 240 269 277 280 283 286 287 286 286 287 288 289 289 289 290 291 291 292 293 295 296 297 297 296 295 295 296 294 296 296 296 296 295 295 294 294 295
289 291 292 291 290 290 290 291 292 292 292 291 291 291 292 292 292 292 293 294 295 295 296 297 296 295 296 296 297 297 297 297 296 296 295 295 295 296
306 299 296 296 296 296 295 295 294 294 294 294 294 294 293 293 293 292 293 294 295 295 296 296 296 296 296 297 297 298 298 297 297 296 297 297 297 297
305 303 302 301 300 299 298 298 297 297 296 296 295 295 294 294 293 293 294 294 295 295 296 296 297 297 297 298 298 298 299 299 298 298 299 299 299 300
305 305 304 303 303 302 301 300 300 299 299 298 298 297 296 295 295 295 295 295 295 296 296 297 298 298 299 298 299 300 301 302 302 301 300 299 300 301
309 308 307 306 305 304 303 302 302 301 301 300 299 299 298 297 297 296 296 296 296 296 297 298 299 300 300 300 301 302 303 304 305 306 305 304 302 301